Total_Precipitation_Accumulation
1.56 1.39 2.34 2.53 2.30 2.06 1.94 1.89 1.91 1.91 1.93 1.95 1.73 1.44 1.26 1.17 1.08 1.00 0.89 0.86 0.91 0.90 0.85 0.82 0.84 0.81 0.76 0.74 0.72 0.76 0.86 0.97 1.02 1.03 1.08 1.18 1.11 1.14 1.41 1.75 1.91 2.18 1.84
1.28 1.36 2.37 2.57 2.26 1.91 1.76 1.81 1.93 1.91 1.90 1.81 1.70 1.47 1.31 1.15 1.05 0.97 0.85 0.79 0.76 0.77 0.73 0.79 0.88 0.88 0.88 0.91 0.95 0.99 0.98 0.96 1.07 1.16 1.34 1.41 1.30 1.29 1.33 1.63 1.77 2.04 1.89
1.32 1.43 2.06 2.56 2.30 1.99 1.80 1.85 1.97 1.90 1.92 1.78 1.72 1.53 1.36 1.15 1.06 0.99 0.90 0.84 0.83 0.77 0.72 0.79 0.94 0.93 0.96 1.00 1.05 1.12 1.10 1.06 1.15 1.33 1.75 2.37 1.78 1.44 1.44 1.54 1.66 1.61 1.75
1.25 1.31 1.82 2.61 2.29 2.12 2.00 2.03 1.96 1.93 1.97 1.76 1.64 1.51 1.37 1.23 1.19 1.15 1.21 1.22 1.05 0.87 0.80 0.82 0.96 0.93 0.90 0.98 1.08 1.07 1.07 1.12 1.30 1.38 1.80 2.40 2.20 1.59 1.58 1.69 1.78 1.57 1.64
1.23 1.36 2.09 2.62 2.28 2.16 2.10 2.06 1.91 1.99 2.02 1.80 1.59 1.41 1.29 1.29 1.42 1.47 1.43 1.29 1.08 0.90 0.83 0.83 0.90 0.95 0.91 0.89 1.01 1.05 1.10 1.19 1.32 1.31 1.74 2.28 2.51 2.03 1.67 1.68 1.74 1.58 1.62
1.44 1.47 2.12 2.61 2.37 2.18 2.14 2.04 1.94 1.94 2.01 1.91 1.63 1.42 1.30 1.31 1.33 1.34 1.35 1.25 1.06 0.91 0.79 0.86 0.94 0.95 0.94 0.93 0.97 1.04 1.08 1.16 1.10 1.29 1.75 2.12 2.42 2.01 1.56 1.55 1.72 1.69 1.72
1.37 1.46 1.86 2.35 2.22 2.06 2.02 2.00 2.02 2.00 1.97 1.94 1.68 1.50 1.45 1.37 1.26 1.26 1.25 1.17 0.98 0.86 0.80 0.90 0.98 0.96 0.95 0.99 0.96 0.94 1.02 0.94 0.83 1.17 1.58 1.97 2.02 1.84 1.59 1.65 1.85 1.82 1.92
1.36 1.35 1.58 2.05 2.16 2.03 1.98 1.90 1.95 1.98 1.97 1.88 1.56 1.43 1.39 1.38 1.31 1.24 1.21 1.16 1.01 0.99 0.95 0.91 0.90 0.93 0.98 0.99 0.97 0.96 0.98 0.77 0.64 0.91 1.28 1.76 2.01 1.92 1.71 1.68 1.85 1.93 2.07
1.51 1.45 1.54 1.80 1.96 2.23 2.23 2.06 2.01 1.99 1.96 1.86 1.55 1.42 1.35 1.27 1.13 1.10 1.10 1.04 1.04 1.07 0.98 0.88 0.84 0.85 0.91 0.96 0.96 0.98 0.94 0.76 0.69 0.88 0.93 1.50 1.94 1.96 1.79 1.75 1.80 1.91 2.13
1.58 1.54 1.50 1.59 1.63 1.82 1.99 2.13 2.13 2.06 2.00 1.91 1.62 1.46 1.41 1.22 1.05 1.01 0.94 0.97 1.01 1.09 1.12 1.00 0.93 0.93 0.95 1.03 1.03 0.99 0.93 0.72 0.67 0.74 0.99 1.31 1.94 1.98 1.80 1.80 1.81 1.83 1.94
1.47 1.40 1.34 1.37 1.50 1.65 1.84 2.01 2.15 2.07 2.01 1.90 1.67 1.55 1.45 1.15 0.99 0.94 0.88 1.10 1.08 1.11 1.15 1.15 1.18 1.16 1.05 1.00 1.07 0.96 0.73 0.68 0.85 0.90 1.03 1.40 2.04 2.13 1.97 1.85 1.86 1.80 1.71
1.48 1.32 1.15 1.17 1.27 1.38 1.50 1.91 1.93 1.67 1.60 1.52 1.67 1.55 1.36 1.29 1.15 0.79 0.84 1.10 1.25 1.27 1.19 1.16 1.25 1.11 0.85 0.73 0.81 0.75 0.58 0.67 0.80 0.86 0.98 1.61 2.09 2.11 1.89 1.78 1.84 1.74 1.58
1.30 1.22 1.11 1.07 1.02 1.03 1.15 1.39 1.55 1.57 1.60 1.49 1.44 1.36 1.32 1.18 0.98 0.80 0.85 0.87 0.91 0.97 0.89 0.92 0.89 0.74 0.68 0.73 0.72 0.61 0.55 0.64 0.75 0.87 1.10 1.73 2.18 2.16 1.86 1.70 1.71 1.64 1.56
1.11 1.10 1.05 0.95 0.87 0.79 0.82 0.89 1.00 1.18 1.31 1.32 1.15 1.04 1.08 1.10 0.98 0.82 0.83 0.84 0.83 0.86 0.96 0.98 0.97 0.89 0.83 0.81 0.76 0.76 0.75 0.78 0.81 0.91 1.21 1.62 2.15 2.23 2.08 1.95 1.86 1.78 1.69
1.04 1.04 0.96 0.82 0.79 0.73 0.73 0.75 0.72 0.93 1.13 1.22 1.21 1.04 0.97 0.99 0.99 0.93 0.80 0.81 0.76 0.80 0.87 0.91 0.92 0.97 1.03 0.99 0.95 0.97 1.00 0.94 0.86 0.84 1.04 1.42 1.98 2.47 2.63 2.60 2.27 2.08 1.97
0.87 0.99 0.93 0.86 0.86 0.78 0.69 0.69 0.68 0.78 0.92 0.95 1.09 1.10 1.02 0.94 0.90 0.95 0.90 0.90 0.90 0.88 0.86 0.84 0.83 0.97 1.03 1.07 1.04 1.00 0.97 0.87 0.86 0.94 1.10 1.20 1.33 1.80 2.58 2.82 2.65 2.44 2.27
0.77 0.80 0.77 0.77 0.81 0.80 0.78 0.73 0.74 0.86 0.89 0.90 0.95 0.94 0.99 0.91 0.85 0.91 0.93 0.93 0.95 0.95 0.91 0.91 0.93 1.02 1.05 1.15 1.18 1.02 0.95 0.90 0.85 0.91 1.00 1.10 0.94 1.02 1.64 2.33 2.60 2.49 2.47
0.69 0.68 0.71 0.64 0.72 0.83 0.90 0.90 0.95 0.99 0.99 1.03 0.96 0.90 0.90 0.85 0.84 0.94 0.97 0.98 1.03 0.94 0.91 0.99 1.07 1.18 1.21 1.27 1.28 1.09 0.89 0.98 0.93 0.92 1.04 1.08 1.06 0.99 1.17 1.46 1.80 2.08 2.49
0.69 0.69 0.72 0.70 0.75 0.85 0.91 1.02 1.09 1.14 1.20 1.30 1.23 1.18 1.13 1.01 1.02 1.11 1.15 1.15 1.15 1.16 1.09 1.00 1.05 1.21 1.36 1.37 1.19 1.09 0.99 1.01 1.03 0.99 1.16 1.19 1.18 1.17 1.22 1.15 1.21 1.47 2.00
0.76 0.73 0.77 0.83 0.88 1.01 1.17 1.35 1.52 1.60 1.74 1.90 1.83 1.69 1.49 1.32 1.28 1.42 1.40 1.31 1.36 1.47 1.52 1.34 1.39 1.34 1.31 1.39 1.22 1.16 1.14 1.08 1.08 1.14 1.20 1.32 1.44 1.29 1.29 1.22 1.15 1.02 1.33
0.77 0.75 0.74 0.79 0.86 0.98 1.19 1.47 1.89 2.09 2.19 2.15 2.15 2.06 1.83 1.61 1.61 1.81 1.80 1.74 1.74 1.75 1.72 1.66 1.81 1.75 1.47 1.39 1.60 1.59 1.43 1.24 1.18 1.18 1.24 1.48 1.59 1.50 1.53 1.46 1.34 1.18 1.08
0.65 0.68 0.79 0.78 0.82 0.93 1.19 1.47 1.80 2.12 2.16 2.16 2.16 2.12 2.00 1.86 1.83 1.88 2.10 2.20 2.16 2.31 2.29 2.09 2.23 2.26 1.87 1.63 1.93 2.26 1.97 1.73 1.31 1.22 1.35 1.41 1.50 1.59 1.65 1.51 1.36 1.26 1.24
0.57 0.54 0.65 0.75 0.86 1.11 1.40 1.67 1.83 2.07 2.14 2.17 2.12 2.14 2.17 2.10 2.00 2.04 2.17 2.33 2.33 2.42 2.56 2.61 2.52 2.63 2.45 2.04 1.91 2.24 2.18 2.01 1.79 1.44 1.37 1.45 1.60 1.67 1.70 1.69 1.52 1.27 1.26
0.47 0.44 0.51 0.62 0.85 1.21 1.55 1.77 1.98 2.30 2.34 2.24 2.23 2.19 2.20 2.22 2.20 2.30 2.34 2.43 2.44 2.44 2.54 2.63 2.56 2.72 2.84 2.46 2.13 1.92 1.77 1.77 1.93 1.76 1.52 1.47 1.63 1.65 1.65 1.68 1.70 1.54 1.37
0.47 0.47 0.51 0.67 0.93 1.24 1.47 1.73 2.07 2.27 2.33 2.41 2.29 2.24 2.24 2.28 2.29 2.34 2.42 2.60 2.58 2.56 2.53 2.71 2.74 2.83 2.77 2.71 2.57 2.39 2.21 1.98 1.67 1.81 1.86 1.70 1.59 1.48 1.53 1.66 1.81 1.76 1.58
0.46 0.53 0.64 0.81 0.98 1.24 1.45 1.69 1.89 2.09 2.22 2.32 2.37 2.27 2.23 2.29 2.37 2.23 2.15 2.33 2.40 2.45 2.45 2.60 2.74 2.87 2.84 2.88 2.80 2.51 2.47 2.35 2.03 2.00 1.87 1.73 1.74 1.56 1.48 1.55 1.61 1.61 1.63